Ithaca, NY

10:09 PM EDT on June 25, 2017 (GMT -0400)
Tompkins County

Weather History for KITH - January, 2013

Change the Weather History Date:

Sunday, January 20, 2013

  Actual Average Record
Temperature  
Mean Temperature 32 °F -  
Max Temperature 44 °F 29 °F 56 °F (1951)
Min Temperature 19 °F 10 °F -17 °F (1970)
Degree Days  
Heating Degree Days 34    
Moisture  
Dew Point 17 °F    
Average Humidity 57    
Maximum Humidity 88    
Minimum Humidity 45    
Precipitation  
Precipitation 0.00 in - - ()
Sea Level Pressure  
Sea Level Pressure 29.82 in    
Wind  
Wind Speed 15 mph (West)    
Max Wind Speed 29 mph    
Max Gust Speed 37 mph    
Visibility 10 miles    
Events Rain , Snow    
Averages and records for this station are not official NWS values.
T = Trace of Precipitation, MM = Missing Value Source: NWS Daily Summary

Daily Weather History Graph

Daily Weather History Graph

Search for Another Location

Airport or City:

Trip Planner

Search our weather history database for the weather conditions in past years. The results will help you decide how hot, cold, wet, or windy it might be!

Date:

Astronomy

Jan. 20, 2013 Rise Set
Actual Time 7:29 AM EST 5:04 PM EST
Civil Twilight 6:59 AM EST 5:35 PM EST
Nautical Twilight 6:24 AM EST 6:09 PM EST
Astronomical Twilight 5:51 AM EST 6:43 PM EST
Moon 12:04 PM EST (1/20) 1:59 AM EST (1/20)
Length of Visible Light 10h 36m
Length of Day
9h 34m
Waxing Gibbous, 66% of the Moon is Illuminated
Jan 20
Waxing Gibbous
Jan 26
Full
Feb 3
Last Quarter
Feb 10
New
Feb 17
First Quarter

Hourly Weather History & Observations

Time (EST) Temp. Windchill Dew Point Humidity Pressure Visibility Wind Dir Wind Speed Gust Speed Precip Events Conditions
12:56 AM 39.9 °F 34.5 °F 21.0 °F 47% 29.70 in 10.0 mi SSE 8.1 mph - N/A   Clear
1:56 AM 39.9 °F 33.4 °F 20.1 °F 45% 29.66 in 10.0 mi SSE 10.4 mph - N/A   Clear
2:56 AM 41.0 °F 34.7 °F 21.0 °F 45% 29.62 in 10.0 mi SSE 10.4 mph - N/A   Partly Cloudy
3:56 AM 39.9 °F 34.5 °F 22.1 °F 49% 29.57 in 10.0 mi SSE 8.1 mph - N/A   Clear
4:56 AM 41.9 °F 34.6 °F 23.0 °F 47% 29.56 in 10.0 mi SSW 13.8 mph - N/A   Clear
5:56 AM 43.0 °F 36.0 °F 25.2 °F 49% 29.54 in 10.0 mi SW 13.8 mph 28.8 mph N/A   Mostly Cloudy
6:20 AM 44.6 °F 37.8 °F 26.6 °F 49% 29.52 in 10.0 mi SW 15.0 mph 23.0 mph N/A   Overcast
6:56 AM 43.9 °F 35.7 °F 26.1 °F 50% 29.54 in 10.0 mi SW 19.6 mph 25.3 mph N/A   Overcast
7:33 AM 42.8 °F 32.9 °F 33.8 °F 70% 29.56 in 10.0 mi WNW 26.5 mph 32.2 mph 0.00 in Rain Light Rain
7:56 AM 37.9 °F 27.6 °F 29.1 °F 71% 29.60 in 10.0 mi West 20.7 mph 28.8 mph 0.00 in Rain Light Rain
8:56 AM 39.9 °F 28.6 °F 22.1 °F 49% 29.67 in 10.0 mi West 28.8 mph 36.8 mph 0.00 in   Mostly Cloudy
9:56 AM 36.9 °F 26.5 °F 19.0 °F 49% 29.75 in 10.0 mi WNW 19.6 mph 35.7 mph N/A   Mostly Cloudy
10:56 AM 34.9 °F 23.0 °F 16.2 °F 46% 29.80 in 10.0 mi WNW 23.0 mph 31.1 mph N/A   Mostly Cloudy
11:56 AM 32.9 °F 19.1 °F 16.2 °F 50% 29.81 in 10.0 mi WNW 28.8 mph 35.7 mph N/A   Mostly Cloudy
12:56 PM 30.0 °F 17.2 °F 13.1 °F 49% 29.84 in 10.0 mi West 20.7 mph 33.4 mph N/A   Mostly Cloudy
1:56 PM 28.0 °F 13.6 °F 14.0 °F 56% 29.89 in 10.0 mi West 24.2 mph 28.8 mph 0.00 in   Mostly Cloudy
2:56 PM 26.1 °F 10.7 °F 10.0 °F 51% 29.92 in 10.0 mi West 25.3 mph 34.5 mph N/A   Mostly Cloudy
3:56 PM 24.1 °F 8.7 °F 10.0 °F 55% 29.96 in 10.0 mi West 23.0 mph 29.9 mph N/A   Mostly Cloudy
4:56 PM 23.0 °F 6.6 °F 9.1 °F 55% 29.97 in 10.0 mi West 25.3 mph 28.8 mph 0.00 in Snow Light Snow
5:56 PM 23.0 °F 9.2 °F 9.1 °F 55% 30.01 in 10.0 mi West 17.3 mph - 0.00 in   Overcast
6:56 PM 23.0 °F 10.1 °F 8.1 °F 53% 30.03 in 10.0 mi West 15.0 mph 20.7 mph 0.00 in   Overcast
7:56 PM 22.1 °F 8.5 °F 14.0 °F 71% 30.05 in 10.0 mi NW 16.1 mph 32.2 mph 0.00 in Snow Light Snow Showers
8:37 PM 19.4 °F 6.0 °F 15.8 °F 86% 30.01 in 4.0 mi WNW 13.8 mph - 0.00 in Snow Light Snow
8:56 PM 20.1 °F 7.5 °F 17.1 °F 88% 30.06 in 6.0 mi WNW 12.7 mph - 0.00 in Snow Light Snow
9:39 PM 19.4 °F 6.6 °F 12.2 °F 74% 30.02 in 10.0 mi West 12.7 mph - 0.00 in Snow Light Snow Showers
9:56 PM 20.1 °F 7.5 °F 12.0 °F 71% 30.06 in 10.0 mi West 12.7 mph - 0.00 in Snow Light Snow Showers
10:56 PM 19.0 °F 6.1 °F 10.0 °F 68% 30.07 in 10.0 mi WNW 12.7 mph 23.0 mph 0.00 in   Overcast
11:56 PM 19.0 °F 6.8 °F 8.1 °F 62% 30.07 in 10.0 mi West 11.5 mph - N/A   Overcast